Location: Maiden
(35.5760°N, 81.2120°W)
Time: 01:10:14
(UTC-04:00)

A-11 Canister half - Pass Details

Date: 09 August 2020
Orbit: 1527 x 1682 km, 47.3° (Epoch: 25 September)

Event Time Altitude Azimuth Distance (km) Brightness Sun altitude
Rises 10:57:12 0° 193° (SSW) 4,856 11.7 50.5°
Reaches altitude 10° 11:00:52 10° 182° (S) 3,891 11.4 51.2°
Maximum altitude 11:09:00 29° 127° (SE) 2,711 11.7 52.7°
Drops below altitude 10° 11:17:12 10° 73° (ENE) 3,945 11.7 54.2°
Sets 11:20:54 0° 63° (ENE) 4,934 11.9 54.9°
